Home > Weather > Fairbanks > Past weeks

Flag for USA Weather for the Past 2 Weeks in Fairbanks, Alaska, USA

Now
39 °F

Overcast.


Feels Like: 39 °F
Forecast: 38 / 53 °F
Wind: 1 mph from Northeast

Location: Wainwright U. S. Army Airfield

Current Time: May 3, 2016 at 3:44:37 AM

Latest Report: May 3, 2016 at 2:58 AM


Visibility: 10 mi

Pressure: 29.72 "Hg

Humidity: 97%

Dew Point: 39 °F

Location of FairbanksLocation

Historic Weather in Fairbanks — Graph

°F

Fairbanks Temperature Yesterday

Maximum temperature yesterday: 55 °F (at 12:59 PM)
Minimum temperature yesterday: 33 °F (at 5:58 AM)
Average temperature yesterday: 45 °F

High & Low Weather Summary for the Past Weeks

 TemperatureHumidityPressure
High64 °F (Apr 23, 5:58 PM)100% (Apr 28, 4:03 AM)30.09 "Hg (Apr 28, 4:03 AM)
Low30 °F (Apr 30, 5:58 AM)16% (Apr 30, 4:58 PM)29.49 "Hg (Apr 30, 5:58 PM)
Average48 °F55%29.74 "Hg
* Reported Apr 18 1:58 AM — May 3 1:58 AM, Fairbanks, Weather by CustomWeather, © 2016

Note: Actual official high and low records may vary slightly from our data, if they occured in-between our weather recording intervals... More about our weather records

Advertising

Fairbanks Weather History for the Previous 24 Hours

Scroll right to see more
 ConditionsComfort  
Time TempWeatherWind HumidityBarometerVisibility
1:58 AM
Tue, May 3
42 °FOvercast.1 mph91%29.70 "Hg10 mi
12:58 AM43 °FMostly cloudy.9 mph90%29.68 "Hg10 mi
11:58 PM
Mon, May 2
44 °FOvercast.9 mph88%29.67 "Hg10 mi
10:58 PM45 °FLight rain. More clouds than sun.5 mph87%29.68 "Hg7 mi
9:58 PM45 °FLight rain. Overcast.No wind91%29.65 "Hg8 mi
8:58 PM45 °FRain. Fog.5 mph92%29.65 "Hg4 mi
8:03 PM46 °FHeavy rain. Mostly cloudy.7 mph76%29.60 "Hg1 mi
7:58 PM48 °FRain. Mostly cloudy.3 mph73%29.61 "Hg2 mi
6:58 PM55 °FPartly sunny.7 mph46%29.58 "Hg10 mi
5:58 PM55 °FPartly sunny.8 mph47%29.57 "Hg10 mi
3:58 PM53 °FScattered clouds.9 mph51%29.57 "Hg10 mi
2:58 PM54 °FMostly cloudy.10 mph47%29.56 "Hg10 mi
1:58 PM54 °FMostly cloudy.7 mph46%29.56 "Hg10 mi
12:59 PM55 °FLight rain. Mostly cloudy.1 mph44%29.54 "Hg10 mi
12:58 PM54 °FMostly cloudy.No wind45%29.55 "Hg10 mi
11:58 AM51 °FBroken clouds.10 mph49%29.56 "Hg10 mi
10:58 AM47 °FSprinkles. Broken clouds.3 mph58%29.58 "Hg10 mi
9:58 AM44 °FBroken clouds.No wind63%29.59 "Hg10 mi
8:58 AM40 °FBroken clouds.3 mph74%29.60 "Hg10 mi
7:58 AM35 °FSunny.No wind84%29.62 "Hg8 mi
6:58 AM34 °FScattered clouds.No wind88%29.64 "Hg10 mi
5:58 AM33 °FClear.2 mph87%29.64 "Hg8 mi
4:58 AM35 °FClear.No wind83%29.65 "Hg8 mi
3:58 AM36 °FClear.6 mph78%29.66 "Hg9 mi
Weather by CustomWeather, © 2016

See weather overviewHow to use our weather pages